Location: Summit Observatory
(39.5293°N, 75.7290°W)
Time: 16:10:23
(UTC-05:00)

Amateur Radio Satellites - All Passes

Search period start: 01 February 2015 15:40
Search period end: 02 February 2015 15:40
Location: Summit Observatory, 39.5293°N, 75.7290°W

Satellite Date Start Highest point End Downlink Frequencies (MHz)
Time Altitude Azimuth
DANDE 01 Feb 15:41:08 15:46:42 38° 271° (W) 15:50:52 436.750
KKS-1 01 Feb 15:45:03 15:48:44 25° 291° (WNW) 15:52:19 437.445
CUSAT 1 01 Feb 15:51:48 15:56:04 23° 276° (W) 15:59:23 437.405
RS-15 01 Feb 15:57:20 16:05:15 20° 258° (WSW) 16:12:35 29.354- 29.394
AO-7 01 Feb 16:08:54 16:16:53 47° 260° (W) 16:24:50 29.400- 29.500
MOZHAYETS 4 01 Feb 16:12:53 16:16:44 27° 95° (E) 16:20:38
O/OREOS (USA 219) 01 Feb 16:25:06 16:28:57 26° 301° (WNW) 16:32:46 437.305
JAS-2 01 Feb 16:29:17 16:34:35 51° 260° (W) 16:39:38 435.910
SO-50 01 Feb 16:30:02 16:31:40 12° 35° (NE) 16:33:30 436.795
M-CUBED/EXP-1 PRIME 01 Feb 16:39:35 16:42:07 20° 294° (WNW) 16:44:39 437.505
Cubesat XI-IV 01 Feb 16:55:23 17:00:17 40° 70° (ENE) 17:05:16 437.490
CUTE-I 01 Feb 17:13:56 17:19:07 58° 73° (ENE) 17:24:23 437.470
JUGNU 01 Feb 17:23:44 17:24:38 10° 180° (S) 17:25:34 437.505
YUBILEINY 01 Feb 17:39:33 17:44:49 19° 81° (E) 17:50:36 435.215
MOZHAYETS 4 01 Feb 17:50:01 17:53:56 28° 290° (WNW) 17:57:47
HO-68 01 Feb 18:04:38 18:07:30 13° 54° (NE) 18:10:45 435.675
SO-50 01 Feb 18:08:20 18:13:15 65° 55° (NE) 18:18:08 436.795
SRMSAT 01 Feb 18:11:30 18:12:00 10° 176° (S) 18:12:33 437.500
STRAND 1 01 Feb 18:13:26 18:17:43 27° 95° (E) 18:22:04 437.568
CUBESAT XI-V 01 Feb 18:15:21 18:19:47 40° 97° (E) 18:24:14 437.345
PRISM 01 Feb 18:21:31 18:25:39 64° 101° (ESE) 18:29:47 437.425
Cubesat XI-IV 01 Feb 18:36:10 18:40:33 25° 266° (W) 18:44:50 437.490
CUTE-I 01 Feb 18:56:13 18:59:41 17° 270° (W) 19:02:55 437.470
CANX-2 01 Feb 19:05:17 19:08:07 18° 68° (ENE) 19:11:05 2200.000
DOVE 4 01 Feb 19:09:54 19:13:04 17° 64° (ENE) 19:16:31 437.250
GOMX 1 01 Feb 19:14:12 19:18:23 26° 67° (ENE) 19:22:49 467.674
CUTE 1.7 + AOD 2 01 Feb 19:27:58 19:31:37 28° 71° (ENE) 19:35:19 437.475
ISS 01 Feb 19:31:04 19:33:36 21° 133° (SE) 19:36:12 145.825
YUBILEINY 01 Feb 19:32:00 19:40:42 83° 278° (W) 19:49:28 435.215
BRITE-PL 01 Feb 19:36:59 19:42:02 57° 74° (ENE) 19:47:29 437.365/2234.400
Oscar 11 01 Feb 19:44:27 19:46:35 14° 66° (ENE) 19:48:53 145.826/435.025
HO-68 01 Feb 19:47:03 19:54:08 70° 71° (ENE) 20:01:15 435.675
SO-50 01 Feb 19:50:29 19:53:22 15° 251° (WSW) 19:56:01 436.795
UWE-3 01 Feb 19:50:36 19:51:23 11° 63° (ENE) 19:52:29 435.000/436.395/437.385
STRAND 1 01 Feb 19:52:19 19:56:59 35° 291° (WNW) 20:01:36 437.568
SEEDS 01 Feb 19:52:49 19:56:52 45° 74° (ENE) 20:00:57 437.485
CUBESAT XI-V 01 Feb 19:53:30 19:57:00 20° 293° (WNW) 20:00:22 437.345
PRISM 01 Feb 19:59:25 20:00:43 11° 296° (WNW) 20:01:48 437.425
CINEMA 3 01 Feb 20:04:40 20:09:01 31° 70° (ENE) 20:13:29 145.822/145.860
DELFI C3 01 Feb 20:11:49 20:14:47 20° 69° (ENE) 20:17:52 145.870
COMPASS 1 01 Feb 20:13:42 20:17:53 67° 76° (ENE) 20:22:04 437.405
UKube-1 01 Feb 20:20:52 20:23:59 20° 67° (ENE) 20:27:12 .
AAUSAT CUBESAT 2 01 Feb 20:37:02 20:41:14 75° 258° (WSW) 20:45:26 437.432
CANX-2 01 Feb 20:39:48 20:43:50 38° 263° (W) 20:47:50 2200.000
ZACube-1 01 Feb 20:42:18 20:46:16 30° 70° (ENE) 20:50:18 437.345
DOVE 4 01 Feb 20:45:16 20:50:19 62° 260° (W) 20:55:36 437.250
DX 1 01 Feb 20:45:16 20:49:16 38° 71° (ENE) 20:53:21 434.975-435.025
CUBEBUG 2 01 Feb 20:50:50 20:55:28 53° 73° (ENE) 21:00:08 437.445
GOMX 1 01 Feb 20:51:26 20:56:16 40° 264° (W) 21:01:21 467.674
FUNcube-1 01 Feb 20:52:38 20:56:52 37° 72° (ENE) 21:01:08 145.935
50 SAT 01 Feb 20:53:32 20:55:46 15° 67° (ENE) 20:58:10 437.505
CUTE 1.7 + AOD 2 01 Feb 21:04:05 21:07:34 23° 266° (W) 21:10:57 437.475
ISS 01 Feb 21:06:50 21:09:56 39° 328° (NNW) 21:13:03 145.825
BRITE-PL 01 Feb 21:17:35 21:21:05 17° 272° (W) 21:24:29 437.365/2234.400
Oscar 11 01 Feb 21:18:07 21:22:23 53° 261° (W) 21:26:39 145.826/435.025
UWE-3 01 Feb 21:22:37 21:27:20 85° 260° (W) 21:32:05 435.000/436.395/437.385
AISAT 01 Feb 21:27:56 21:32:06 41° 72° (ENE) 21:36:22 437.250
SEEDS 01 Feb 21:30:37 21:33:00 14° 270° (W) 21:35:12 437.485
YUBILEINY 01 Feb 21:33:58 21:39:13 16° 301° (WNW) 21:43:57 435.215
HO-68 01 Feb 21:37:19 21:42:33 21° 269° (W) 21:47:29 435.675
ANTELSAT 01 Feb 21:39:41 21:42:02 15° 90° (E) 21:44:33 437.575/2403.000
CINEMA 3 01 Feb 21:41:52 21:46:12 29° 266° (W) 21:50:33 145.822/145.860
ESTCUBE 1 01 Feb 21:43:42 21:47:24 26° 69° (ENE) 21:51:11 437.505/2401.250
TIGRISAT 01 Feb 21:44:51 21:47:32 16° 91° (E) 21:50:21 435.000
DELFI C3 01 Feb 21:46:17 21:49:54 29° 264° (W) 21:53:28 145.870
HUMSAT D 01 Feb 21:50:32 21:54:54 90° 82° (E) 21:59:17 437.325/437.525
CUBEBUG 1 01 Feb 21:51:08 21:54:51 29° 70° (ENE) 21:58:39 437.445
POLYITAN 1 01 Feb 21:52:37 21:53:57 11° 89° (E) 21:55:31 437.675
VELOX 1 01 Feb 21:53:50 21:58:15 79° 77° (ENE) 22:02:45 145.980
UKube-1 01 Feb 21:55:57 21:59:56 35° 263° (W) 22:03:55 .
AIST 1 01 Feb 22:04:22 22:08:46 88° 259° (W) 22:13:09
POPSAT HIP 1 01 Feb 22:09:11 22:12:05 18° 92° (E) 22:15:07 437.405
DUCHIFAT 1 01 Feb 22:09:30 22:12:23 18° 92° (E) 22:15:23 145.980
ZACube-1 01 Feb 22:18:45 22:22:39 26° 266° (W) 22:26:28 437.345
DX 1 01 Feb 22:22:39 22:25:44 18° 268° (W) 22:28:40 434.975-435.025
50 SAT 01 Feb 22:26:35 22:30:33 45° 261° (W) 22:34:32 437.505
CUBEBUG 2 01 Feb 22:29:36 22:32:33 16° 271° (W) 22:35:17 437.445
FUNcube-1 01 Feb 22:29:52 22:33:22 20° 268° (W) 22:36:44 145.935
UNISAT 6 01 Feb 22:38:29 22:42:54 68° 101° (E) 22:47:11 437.425
NANOSAT C BR1 01 Feb 22:44:06 22:48:13 44° 98° (E) 22:52:20 145.865
ISS 01 Feb 22:45:37 22:47:08 12° 348° (NNW) 22:48:37 145.825
SPROUT 01 Feb 22:56:41 23:00:36 35° 72° (ENE) 23:04:35 437.525
BUGSAT 1 01 Feb 22:59:39 23:03:51 52° 100° (E) 23:08:02 437.445
QB50P2 01 Feb 23:00:37 23:04:56 72° 101° (ESE) 23:09:12 145.880/145.840
AISAT 01 Feb 23:05:57 23:08:59 17° 268° (W) 23:11:52 437.250
QB50P1 01 Feb 23:08:32 23:12:52 88° 100° (E) 23:17:09 145.935-145.965
ANTELSAT 01 Feb 23:14:58 23:19:12 46° 287° (WNW) 23:23:19 437.575/2403.000
TISAT 1 01 Feb 23:19:50 23:24:01 64° 75° (ENE) 23:28:16 437.305
ESTCUBE 1 01 Feb 23:20:23 23:24:14 27° 265° (W) 23:28:03 437.505/2401.250
TIGRISAT 01 Feb 23:20:24 23:24:35 41° 288° (WNW) 23:28:37 435.000
POLYITAN 1 01 Feb 23:26:06 23:30:22 57° 286° (WNW) 23:34:34 437.675
CUBEBUG 1 01 Feb 23:27:40 23:31:15 24° 266° (W) 23:34:47 437.445
GONETS M04 01 Feb 23:41:08 23:47:50 27° 84° (E) 23:54:48
POPSAT HIP 1 01 Feb 23:44:11 23:48:10 36° 288° (WNW) 23:52:06 437.405
DUCHIFAT 1 01 Feb 23:44:26 23:48:25 37° 288° (WNW) 23:52:20 145.980
BEESAT 3 01 Feb 23:52:27 23:52:56 10° 109° (ESE) 23:53:41 437.485
SWISSCUBE 01 Feb 23:57:57 00:01:58 28° 69° (ENE) 00:06:04 437.505
BEESAT 02 Feb 00:12:36 00:16:56 37° 70° (ENE) 00:21:19 436.000
UNISAT 6 02 Feb 00:17:45 00:19:10 11° 297° (WNW) 00:20:21 437.425
ITUPSAT 1 02 Feb 00:18:54 00:23:21 42° 71° (ENE) 00:27:51 437.325
NANOSAT C BR1 02 Feb 00:21:06 00:23:47 16° 294° (WNW) 00:26:17 145.865
ISS 02 Feb 00:23:45 00:24:45 11° 8° (N) 00:25:47 145.825
SPROUT 02 Feb 00:33:43 00:36:51 19° 268° (W) 00:39:53 437.525
Oscar 19 02 Feb 00:34:27 00:37:59 19° 91° (E) 00:41:41 437.125/150
BUGSAT 1 02 Feb 00:36:39 00:38:57 14° 294° (WNW) 00:41:05 437.445
QB50P2 02 Feb 00:39:30 00:40:20 10° 296° (WNW) 00:40:55 145.880/145.840
STARS 02 Feb 00:52:44 00:54:21 12° 64° (ENE) 00:56:13 437.465
O/OREOS (USA 219) 02 Feb 00:55:53 01:00:21 48° 65° (ENE) 01:04:48 437.305
ITAMSAT 1 02 Feb 01:01:21 01:02:38 11° 87° (E) 01:04:18 435.822/435.867
KKS-1 02 Feb 01:05:57 01:09:35 25° 69° (ENE) 01:13:20 437.445
BEESAT 2 02 Feb 01:16:30 01:20:37 83° 121° (ESE) 01:24:48 435.950
BEESAT 3 02 Feb 01:26:30 01:30:34 67° 303° (WNW) 01:34:44 437.485
AIST 2 02 Feb 01:33:35 01:37:40 50° 117° (ESE) 01:41:51 435.215
GONETS M04 02 Feb 01:35:26 01:44:06 63° 281° (WNW) 01:52:45
SWISSCUBE 02 Feb 01:35:41 01:39:48 28° 265° (W) 01:43:54 437.505
BEESAT 02 Feb 01:51:12 01:54:55 22° 267° (W) 01:58:33 436.000
M-CUBED/EXP-1 PRIME 02 Feb 01:52:58 01:56:20 29° 68° (ENE) 01:59:32 437.505
ITUPSAT 1 02 Feb 01:58:01 02:01:29 19° 268° (W) 02:04:49 437.325
ISS 02 Feb 01:59:13 02:02:06 27° 27° (NNE) 02:05:00 145.825
RS-15 02 Feb 02:00:51 02:04:37 13° 99° (E) 02:09:27 29.354- 29.394
Oscar 19 02 Feb 02:12:43 02:17:40 48° 288° (WNW) 02:22:33 437.125/150
Gurwin Techsat 1B 02 Feb 02:19:08 02:24:15 47° 99° (E) 02:29:23 435.225
AUBIESAT-1 02 Feb 02:22:14 02:26:03 60° 71° (ENE) 02:29:36 437.475
STARS 02 Feb 02:25:56 02:30:21 66° 259° (W) 02:34:49 437.465
O/OREOS (USA 219) 02 Feb 02:36:34 02:39:24 16° 259° (W) 02:42:03 437.305
ITAMSAT 1 02 Feb 02:37:37 02:42:53 81° 286° (WNW) 02:48:07 435.822/435.867
KKS-1 02 Feb 02:42:14 02:46:10 29° 264° (W) 02:50:04 437.445
HORYU 2 02 Feb 02:49:13 02:52:55 26° 95° (E) 02:56:40 437.375
BEESAT 2 02 Feb 02:57:36 02:59:28 12° 320° (NW) 03:01:12 435.950
DANDE 02 Feb 03:04:40 03:12:26 45° 91° (E) 03:20:27 436.750
PCSat 02 Feb 03:05:08 03:10:24 56° 114° (ESE) 03:15:44 145.827
CUSAT 1 02 Feb 03:11:28 03:19:30 56° 94° (E) 03:27:33 437.405
AIST 2 02 Feb 03:13:32 03:16:36 18° 315° (NW) 03:19:37 435.215
MOZHAYETS 4 02 Feb 03:14:24 03:18:00 24° 69° (ENE) 03:21:41
M-CUBED/EXP-1 PRIME 02 Feb 03:28:33 03:31:22 18° 260° (W) 03:33:57 437.505
ISS 02 Feb 03:35:34 03:38:38 36° 224° (SW) 03:41:40 145.825
JAS-2 02 Feb 03:38:15 03:42:30 20° 93° (E) 03:47:19 435.910
GONETS M04 02 Feb 03:40:32 03:43:15 11° 306° (NW) 03:45:15
Gurwin Techsat 1B 02 Feb 03:59:53 04:03:57 22° 294° (WNW) 04:07:52 435.225
RS-15 02 Feb 04:04:29 04:15:16 71° 117° (ESE) 04:26:11 29.354- 29.394
AO-7 02 Feb 04:10:55 04:19:12 66° 103° (ESE) 04:27:26 29.400- 29.500
ITAMSAT 1 02 Feb 04:20:40 04:21:40 10° 300° (WNW) 04:22:19 435.822/435.867
HORYU 2 02 Feb 04:25:47 04:29:34 27° 291° (WNW) 04:33:16 437.375
DANDE 02 Feb 04:47:53 04:55:57 45° 288° (WNW) 05:03:58 436.750
PCSat 02 Feb 04:49:57 04:54:14 23° 313° (NW) 04:58:25 145.827
MOZHAYETS 4 02 Feb 04:51:00 04:55:07 32° 264° (W) 04:59:12
CUSAT 1 02 Feb 04:55:20 05:02:54 35° 291° (WNW) 05:10:07 437.405
PRISM 02 Feb 05:11:21 05:15:11 40° 72° (ENE) 05:19:04 437.425
Cubesat XI-IV 02 Feb 05:14:36 05:17:54 17° 90° (E) 05:21:26 437.490
CUBESAT XI-V 02 Feb 05:18:08 05:22:16 35° 71° (ENE) 05:26:30 437.345
JAS-2 02 Feb 05:22:09 05:27:55 60° 287° (WNW) 05:34:25 435.910
STRAND 1 02 Feb 05:28:25 05:33:00 35° 69° (ENE) 05:37:40 437.568
CUTE-I 02 Feb 05:32:33 05:36:52 25° 93° (E) 05:41:18 437.470
YUBILEINY 02 Feb 05:43:24 05:51:48 48° 75° (ENE) 06:00:16 435.215
AO-7 02 Feb 06:04:36 06:11:29 29° 302° (WNW) 06:18:07 29.400- 29.500
RS-15 02 Feb 06:18:41 06:28:37 37° 321° (NW) 06:38:33 29.354- 29.394
PHONESAT 2.4 02 Feb 06:33:58 06:36:43 21° 150° (SSE) 06:39:32 2401.200-2431.200
VERMONT LUNAR 02 Feb 06:46:47 06:50:02 40° 157° (SSE) 06:53:20 437.305
PRISM 02 Feb 06:48:31 06:50:57 15° 268° (W) 06:53:14 437.425
Cubesat XI-IV 02 Feb 06:53:10 06:58:28 59° 287° (WNW) 07:03:44 437.490
CUBESAT XI-V 02 Feb 06:56:18 06:59:52 21° 267° (W) 07:03:20 437.345
STRAND 1 02 Feb 07:08:01 07:12:17 26° 266° (W) 07:16:30 437.568
CUTE-I 02 Feb 07:12:05 07:17:07 40° 290° (WNW) 07:22:05 437.470
HO-68 02 Feb 07:19:05 07:21:20 12° 86° (E) 07:24:11 435.675
YUBILEINY 02 Feb 07:40:38 07:48:26 36° 273° (W) 07:56:06 435.215
BRITE-PL 02 Feb 07:43:55 07:48:10 23° 90° (E) 07:52:23 437.365/2234.400
COMPASS 1 02 Feb 08:00:51 08:02:02 11° 89° (E) 08:03:29 437.405
PHONESAT 2.4 02 Feb 08:11:23 08:14:58 74° 166° (SSE) 08:18:35 2401.200-2431.200
AAUSAT CUBESAT 2 02 Feb 08:22:23 08:25:12 18° 92° (E) 08:28:08 437.432
SO-50 02 Feb 08:22:57 08:26:36 25° 112° (ESE) 08:30:27 436.795
VERMONT LUNAR 02 Feb 08:24:34 08:28:03 80° 354° (N) 08:31:32 437.305
CANX-2 02 Feb 08:26:08 08:30:03 36° 97° (E) 08:33:58 2200.000
ANTELSAT 02 Feb 08:38:26 08:40:49 14° 65° (ENE) 08:43:25 437.575/2403.000
RS-15 02 Feb 08:38:30 08:45:34 18° 355° (N) 08:52:41 29.354- 29.394
TIGRISAT 02 Feb 08:43:12 08:45:54 16° 66° (ENE) 08:48:46 435.000
CUBEBUG 2 02 Feb 08:45:53 08:47:11 11° 87° (E) 08:48:45 437.445
DOVE 4 02 Feb 08:46:10 08:51:00 42° 97° (E) 08:55:34 437.250
CUTE 1.7 + AOD 2 02 Feb 08:49:26 08:53:39 63° 101° (E) 08:57:48 437.475
GOMX 1 02 Feb 08:54:21 08:59:44 73° 101° (E) 09:04:45 467.674
POPSAT HIP 1 02 Feb 09:02:33 09:04:32 13° 65° (ENE) 09:06:44 437.405
DUCHIFAT 1 02 Feb 09:02:35 09:04:31 13° 65° (ENE) 09:06:39 145.980
HO-68 02 Feb 09:03:08 09:10:20 79° 104° (ESE) 09:17:31 435.675
Oscar 11 02 Feb 09:06:46 09:10:29 28° 95° (E) 09:14:13 145.826/435.025
SEEDS 02 Feb 09:13:53 09:18:05 78° 285° (WNW) 09:22:15 437.485
UWE-3 02 Feb 09:14:57 09:18:13 21° 92° (E) 09:21:31 435.000/436.395/437.385
BRITE-PL 02 Feb 09:21:36 09:26:58 46° 289° (WNW) 09:32:01 437.365/2234.400
DELFI C3 02 Feb 09:27:03 09:30:49 37° 97° (E) 09:34:36 145.870
COMPASS 1 02 Feb 09:34:07 09:38:11 54° 286° (WNW) 09:42:14 437.405
UNISAT 6 02 Feb 09:36:14 09:40:50 55° 74° (ENE) 09:45:25 437.425
NANOSAT C BR1 02 Feb 09:36:14 09:39:58 30° 71° (ENE) 09:43:46 145.865
BEESAT 2 02 Feb 09:37:23 09:41:18 38° 52° (NE) 09:45:11 435.950
HUMSAT D 02 Feb 09:37:31 09:39:57 15° 91° (E) 09:42:33 437.325/437.525
CINEMA 3 02 Feb 09:37:35 09:42:22 80° 102° (ESE) 09:46:53 145.822/145.860
UKube-1 02 Feb 09:44:21 09:48:26 39° 98° (E) 09:52:32 .
VELOX 1 02 Feb 09:46:49 09:49:34 16° 91° (E) 09:52:30 145.980
BEESAT 3 02 Feb 09:46:50 09:50:55 54° 55° (NE) 09:54:57 437.485
BUGSAT 1 02 Feb 09:49:17 09:52:56 32° 71° (ENE) 09:56:41 437.445
PHONESAT 2.4 02 Feb 09:49:59 09:53:35 74° 2° (N) 09:57:13 2401.200-2431.200
QB50P2 02 Feb 09:52:44 09:56:51 48° 73° (ENE) 10:01:02 145.880/145.840
GONETS M04 02 Feb 09:54:05 09:56:09 11° 54° (NE) 09:58:57
AIST 2 02 Feb 09:56:37 10:00:16 27° 49° (NE) 10:03:56 435.215
AAUSAT CUBESAT 2 02 Feb 09:57:15 10:01:01 34° 288° (WNW) 10:04:44 437.432
QB50P1 02 Feb 10:00:23 10:04:35 58° 74° (ENE) 10:08:49 145.935-145.965
SO-50 02 Feb 10:02:44 10:06:59 36° 310° (NW) 10:11:23 436.795
VERMONT LUNAR 02 Feb 10:02:44 10:06:13 87° 9° (N) 10:09:44 437.305
CANX-2 02 Feb 10:02:50 10:05:47 18° 292° (WNW) 10:08:34 2200.000
50 SAT 02 Feb 10:07:21 10:10:37 24° 94° (E) 10:13:56 437.505
ZACube-1 02 Feb 10:07:56 10:12:19 68° 101° (ESE) 10:16:34 437.345
DX 1 02 Feb 10:10:19 10:14:45 82° 103° (ESE) 10:19:09 434.975-435.025
ANTELSAT 02 Feb 10:12:32 10:17:12 61° 260° (W) 10:21:51 437.575/2403.000
TIGRISAT 02 Feb 10:17:39 10:22:17 55° 260° (W) 10:26:53 435.000
POLYITAN 1 02 Feb 10:18:05 10:22:25 86° 258° (WSW) 10:26:46 437.675
FUNcube-1 02 Feb 10:18:20 10:22:44 88° 100° (E) 10:27:00 145.935
CUBEBUG 2 02 Feb 10:20:00 10:24:28 60° 285° (WNW) 10:28:44 437.445
DOVE 4 02 Feb 10:24:32 10:28:28 22° 294° (WNW) 10:32:07 437.250
CUTE 1.7 + AOD 2 02 Feb 10:27:45 10:29:07 11° 295° (WNW) 10:30:15 437.475
AIST 1 02 Feb 10:32:58 10:37:07 56° 95° (E) 10:41:20
GOMX 1 02 Feb 10:34:14 10:37:12 15° 298° (WNW) 10:39:52 467.674
DUCHIFAT 1 02 Feb 10:35:46 10:39:58 55° 260° (W) 10:44:11 145.980
POPSAT HIP 1 02 Feb 10:35:49 10:40:02 54° 260° (W) 10:44:16 437.405
Oscar 11 02 Feb 10:43:05 10:46:35 24° 291° (WNW) 10:49:59 145.826/435.025
UWE-3 02 Feb 10:50:53 10:54:53 33° 289° (WNW) 10:58:44 435.000/436.395/437.385
HO-68 02 Feb 10:52:19 10:57:23 20° 302° (WNW) 11:02:11 435.675
RS-15 02 Feb 10:54:17 11:03:19 27° 29° (NNE) 11:12:54 29.354- 29.394
AISAT 02 Feb 10:56:05 11:00:38 83° 284° (WNW) 11:05:07 437.250
DELFI C3 02 Feb 11:03:13 11:05:48 16° 292° (WNW) 11:08:16 145.870
TISAT 1 02 Feb 11:08:11 11:09:19 11° 89° (E) 11:10:42 437.305
HUMSAT D 02 Feb 11:12:03 11:16:01 40° 287° (WNW) 11:19:54 437.325/437.525
NANOSAT C BR1 02 Feb 11:12:32 11:15:54 22° 267° (W) 11:19:11 145.865
ESTCUBE 1 02 Feb 11:13:15 11:17:46 65° 101° (E) 11:22:17 437.505/2401.250
UNISAT 6 02 Feb 11:15:23 11:18:01 14° 270° (W) 11:20:25 437.425
BEESAT 2 02 Feb 11:16:16 11:19:17 19° 248° (WSW) 11:22:09 435.950
CUBEBUG 1 02 Feb 11:16:34 11:21:00 66° 101° (E) 11:25:26 437.445
CINEMA 3 02 Feb 11:17:34 11:18:54 11° 298° (WNW) 11:19:59 145.822/145.860
UKube-1 02 Feb 11:21:17 11:24:21 18° 293° (WNW) 11:27:18 .
VELOX 1 02 Feb 11:22:09 11:26:26 44° 288° (WNW) 11:30:41 145.980
BUGSAT 1 02 Feb 11:25:29 11:28:32 19° 267° (W) 11:31:32 437.445
BEESAT 3 02 Feb 11:26:40 11:28:38 13° 250° (WSW) 11:30:25 437.485
PHONESAT 2.4 02 Feb 11:28:34 11:32:09 61° 198° (SSW) 11:35:45 2401.200-2431.200
QB50P2 02 Feb 11:30:47 11:33:07 14° 270° (W) 11:35:16 145.880/145.840
AIST 2 02 Feb 11:35:09 11:38:54 29° 246° (WSW) 11:42:32 435.215
QB50P1 02 Feb 11:39:24 11:40:56 11° 271° (W) 11:42:13 145.935-145.965
VERMONT LUNAR 02 Feb 11:40:59 11:44:09 32° 206° (SSW) 11:47:19 437.305
50 SAT 02 Feb 11:42:24 11:45:41 24° 290° (WNW) 11:48:51 437.505
GONETS M04 02 Feb 11:46:40 11:55:17 64° 79° (ENE) 12:03:55
ZACube-1 02 Feb 11:46:48 11:48:09 11° 296° (WNW) 11:49:16 437.345
Oscar 19 02 Feb 11:50:16 11:54:30 27° 68° (ENE) 11:58:50 437.125/150
PCSat 02 Feb 11:54:02 11:59:03 38° 54° (NE) 12:04:05 145.827
AIST 1 02 Feb 12:13:51 12:15:17 11° 293° (WNW) 12:16:30
ITAMSAT 1 02 Feb 12:17:39 12:20:52 17° 64° (ENE) 12:24:17 435.822/435.867
SPROUT 02 Feb 12:19:56 12:24:19 81° 102° (ESE) 12:28:39 437.525
ITUPSAT 1 02 Feb 12:22:47 12:24:11 11° 88° (E) 12:25:54 437.325
TISAT 1 02 Feb 12:41:22 12:45:37 59° 286° (WNW) 12:49:49 437.305
ESTCUBE 1 02 Feb 12:52:09 12:54:11 13° 296° (WNW) 12:56:00 437.505/2401.250
CUBEBUG 1 02 Feb 12:55:04 12:56:54 12° 296° (WNW) 12:58:31 437.445
RS-15 02 Feb 13:06:34 13:18:00 78° 56° (ENE) 13:29:57 29.354- 29.394
PHONESAT 2.4 02 Feb 13:07:58 13:10:19 16° 213° (SSW) 13:12:37 2401.200-2431.200
AO-7 02 Feb 13:20:08 13:25:08 18° 52° (NE) 13:30:30 29.400- 29.500
Oscar 19 02 Feb 13:28:57 13:33:44 36° 263° (W) 13:38:30 437.125/150
SWISSCUBE 02 Feb 13:36:09 13:40:58 78° 103° (ESE) 13:45:45 437.505
PCSat 02 Feb 13:37:40 13:42:23 30° 251° (WSW) 13:46:58 145.827
Gurwin Techsat 1B 02 Feb 13:39:16 13:44:31 68° 74° (ENE) 13:49:49 435.225
GONETS M04 02 Feb 13:44:39 13:51:34 26° 276° (W) 13:58:09
HORYU 2 02 Feb 13:47:09 13:50:38 23° 68° (ENE) 13:54:14 437.375
BEESAT 02 Feb 13:51:02 13:55:51 80° 283° (WNW) 14:00:38 436.000
DANDE 02 Feb 13:52:18 13:57:03 24° 63° (ENE) 14:00:57 436.750
ITAMSAT 1 02 Feb 13:54:51 13:59:57 59° 259° (W) 14:05:06 435.822/435.867
CUSAT 1 02 Feb 13:56:35 14:01:23 29° 67° (ENE) 14:05:10 437.405
ITUPSAT 1 02 Feb 13:57:54 14:02:41 70° 285° (WNW) 14:07:28 437.325
STARS 02 Feb 14:17:28 14:21:03 24° 94° (E) 14:24:41 437.465
KKS-1 02 Feb 14:33:43 14:38:09 57° 100° (E) 14:42:34 437.445
O/OREOS (USA 219) 02 Feb 15:07:00 15:11:27 67° 109° (ESE) 15:15:57 437.305
AO-7 02 Feb 15:08:28 15:16:49 80° 71° (ENE) 15:25:13 29.400- 29.500
M-CUBED/EXP-1 PRIME 02 Feb 15:10:14 15:13:00 23° 101° (ESE) 15:15:56 437.505
SWISSCUBE 02 Feb 15:16:28 15:18:16 12° 297° (WNW) 15:19:48 437.505
RS-15 02 Feb 15:20:13 15:29:35 29° 255° (WSW) 15:38:46 29.354- 29.394
Gurwin Techsat 1B 02 Feb 15:22:13 15:25:06 14° 271° (W) 15:27:41 435.225
HORYU 2 02 Feb 15:23:08 15:27:11 32° 263° (W) 15:31:12 437.375
